RH
50 89 88 74 73 75 73 75 71 61 53 60 59 60 51 42 41 39 35 35 38 38 36 31 30 29 28 28 27 50 86 98 99 96 94 100 99 99 100 100 100 100 99 100
71 63 48 56 67 68 71 78 80 67 57 59 63 61 51 46 45 42 39 36 36 35 34 33 32 32 31 30 28 54 81 94 97 91 91 96 95 97 97 99 99 99 100 100
89 68 45 38 49 81 87 81 78 74 67 60 60 68 59 49 45 41 39 38 37 36 37 36 34 33 31 32 31 66 78 88 96 91 90 91 98 98 100 100 100 100 99 100
84 72 66 68 52 40 89 75 76 70 76 90 58 87 56 52 53 47 43 41 40 38 36 35 34 31 34 33 33 64 75 85 95 93 89 91 94 90 91 97 99 100 99 100
70 71 74 95 83 39 46 62 82 96 99 100 91 98 78 50 52 48 44 43 42 40 38 36 32 31 62 40 35 62 78 84 92 95 91 89 87 84 89 98 97 100 100 100
70 41 58 94 78 85 56 50 69 84 80 97 87 99 80 66 60 48 43 64 67 73 62 46 47 70 74 73 50 57 84 86 94 95 93 90 88 91 95 99 98 100 100 100
60 52 62 65 83 76 85 75 89 94 93 94 65 92 75 75 64 60 71 71 68 67 70 71 72 71 73 77 84 90 90 92 93 96 92 94 94 92 93 98 99 100 100 100
97 70 74 64 93 99 98 77 77 88 92 91 79 98 94 76 62 61 62 63 60 60 60 62 62 62 63 64 69 80 90 98 100 97 97 100 98 87 84 79 71 93 100 99
97 91 66 66 77 95 100 98 68 78 68 97 92 95 82 81 84 75 70 70 70 63 57 55 56 61 64 66 66 66 72 82 97 100 99 100 100 96 86 71 69 83 83 87
97 96 76 80 86 87 100 99 99 98 95 93 93 73 99 98 100 90 92 93 89 80 70 60 53 51 53 56 61 65 65 68 76 94 100 100 99 100 94 98 96 92 95 97
100 99 75 70 99 98 95 96 98 98 97 95 97 97 100 100 100 100 97 97 94 89 81 66 55 50 47 48 52 56 59 64 62 68 82 90 96 100 100 100 100 100 99 100
97 99 96 70 79 80 95 99 99 97 97 98 96 99 100 100 100 97 99 95 95 93 86 80 68 57 55 55 54 58 55 56 52 49 57 62 80 85 84 80 79 85 92 97
99 89 94 66 83 67 86 81 99 100 98 97 95 98 100 100 100 98 97 96 97 96 95 88 82 74 64 58 55 54 53 44 39 45 50 50 55 62 92 90 82 76 68 71
68 90 84 88 86 88 85 57 60 94 96 97 98 99 100 100 100 100 100 97 97 94 98 97 86 80 73 70 59 58 51 44 39 32 36 42 56 48 49 72 91 86 79 68
73 100 75 57 51 46 48 53 55 96 93 97 99 99 100 100 100 98 92 90 86 84 79 81 83 77 79 68 65 56 54 57 51 41 33 34 51 44 38 37 52 68 80 80
67 85 65 62 40 49 68 59 55 70 95 85 98 100 95 93 88 92 86 77 78 79 64 57 58 52 46 43 57 64 60 49 41 46 48 34 30 33 36 35 36 44 57 65
81 84 76 63 49 56 86 87 64 68 73 73 91 100 92 92 97 98 78 51 45 46 43 42 40 42 43 49 48 40 38 45 52 46 40 40 34 29 33 35 33 36 45 57
86 70 80 84 66 88 98 80 68 76 92 63 72 56 54 61 56 53 48 50 52 50 50 49 49 47 50 50 47 46 44 38 40 47 52 51 48 44 39 35 32 30 36 47
70 74 79 86 81 57 91 91 94 95 96 95 75 54 49 45 49 59 57 52 53 53 55 52 50 53 62 62 60 59 60 61 61 63 62 59 56 53 53 51 46 42 39 39
68 72 81 81 78 89 94 82 76 69 93 97 62 55 53 47 72 71 60 60 61 57 56 56 55 61 70 70 66 65 66 66 72 72 67 60 57 55 53 51 51 52 48 46
88 90 88 97 94 76 82 91 72 93 96 79 72 67 61 72 68 62 60 61 59 58 61 59 61 68 69 63 67 70 70 72 71 70 69 68 62 62 57 55 50 49 49 58
95 95 98 90 94 93 89 77 85 92 85 60 61 65 66 67 70 72 70 69 65 66 63 62 64 67 62 62 75 80 76 76 78 81 81 77 71 68 66 65 59 53 58 59
94 97 98 97 94 88 94 93 76 78 67 64 59 61 60 74 76 74 77 75 74 73 74 76 75 75 74 80 86 86 84 87 89 90 91 92 89 83 78 78 76 80 79 80
68 77 92 97 84 88 88 75 55 54 55 56 64 69 72 76 77 82 85 86 87 87 86 86 86 86 88 84 93 95 93 91 89 86 85 86 88 89 90 89 87 92 93 96
72 68 82 92 85 87 82 80 67 54 57 68 68 69 71 72 82 88 91 90 85 80 89 88 84 83 85 87 90 89 89 90 89 85 82 83 86 85 86 85 86 93 95 95
58 48 75 80 62 74 60 62 53 57 63 65 65 70 74 83 89 89 90 79 70 72 79 80 80 84 89 91 91 94 92 92 94 96 94 93 94 91 88 89 86 84 81 87
Wind_Speed
11 14 26 29 27 28 32 30 31 30 21 18 36 24 37 27 22 26 22 19 17 16 10 20 25 29 33 34 31 41 39 42 43 38 36 32 33 34 35 38 40 42 42 44
7 24 25 28 30 32 34 39 39 29 27 20 24 27 36 29 29 27 26 27 22 21 18 21 26 29 32 33 29 36 42 42 45 41 41 36 39 38 42 38 39 42 41 45
16 20 21 27 32 27 29 36 34 34 23 28 27 33 38 33 27 26 25 25 24 23 21 22 20 19 28 28 27 35 41 42 45 43 41 34 31 31 29 33 34 42 45 43
12 10 16 24 34 33 34 29 27 36 31 30 25 22 35 25 24 24 24 23 24 24 22 22 23 16 18 29 29 36 41 42 44 44 40 39 34 29 30 36 37 38 42 43
12 18 20 23 28 27 40 23 21 19 21 14 14 13 25 6 23 23 20 20 25 28 24 23 19 10 4 16 26 28 35 40 42 44 43 42 37 37 34 36 38 36 39 43
17 19 14 6 22 30 28 27 22 21 15 17 17 4 16 13 12 13 13 6 6 7 5 7 4 11 13 8 15 27 30 31 31 38 40 41 40 36 30 32 29 34 35 38
18 6 6 8 18 10 16 14 11 14 9 14 12 11 16 7 16 10 14 13 13 13 13 12 12 11 12 16 18 15 24 23 28 31 34 36 35 35 36 34 31 28 28 34
4 15 2 3 4 8 15 20 10 13 5 3 7 8 2 8 15 18 16 15 16 17 14 15 14 13 14 19 23 26 21 20 18 26 29 29 32 35 34 37 36 37 32 28
6 7 8 16 9 2 6 9 17 18 25 7 3 3 6 18 14 15 17 17 17 16 14 16 15 15 17 22 25 25 25 24 25 18 16 17 24 26 32 40 36 33 32 34
5 9 3 8 4 8 7 7 6 7 5 8 5 2 4 8 11 11 17 16 14 13 13 14 14 15 21 23 24 28 28 27 27 28 25 23 18 15 19 23 27 28 30 34
6 4 9 8 4 8 4 5 6 2 4 3 2 2 6 7 8 10 13 14 13 15 12 12 13 16 22 25 26 26 30 28 29 30 29 30 29 26 21 18 14 13 16 21
4 3 6 9 4 10 4 7 4 4 3 2 2 3 3 4 6 7 12 16 19 17 16 12 13 15 21 22 24 25 28 29 29 29 28 27 24 23 24 23 19 14 12 8
7 4 6 9 4 2 5 16 9 3 3 3 3 2 2 5 8 7 12 17 15 15 16 15 15 14 15 19 22 23 26 29 30 28 27 25 25 24 20 15 14 12 13 10
13 3 4 2 11 8 15 17 13 2 3 5 5 3 5 5 3 2 9 13 12 14 14 11 10 13 15 20 17 22 26 28 25 26 25 23 19 21 19 16 12 9 9 8
6 4 5 15 7 10 11 14 8 9 6 5 6 5 6 4 3 5 9 14 12 13 12 9 6 6 5 10 17 19 18 23 25 25 23 21 16 15 16 16 12 8 8 7
4 5 6 4 9 15 14 18 11 11 7 6 7 8 5 7 2 4 8 11 11 8 8 9 5 7 6 9 6 12 15 8 13 15 16 18 16 14 11 13 12 11 10 8
3 3 5 5 14 8 6 15 17 13 18 3 5 5 10 16 16 14 14 14 14 12 8 8 6 2 8 10 12 16 7 2 5 12 7 10 8 12 14 7 6 7 6 9
3 2 2 4 8 6 4 12 12 16 21 16 17 15 17 17 14 14 11 13 12 11 10 10 9 14 18 19 20 16 17 19 16 14 15 16 14 16 15 12 10 7 6 5
7 2 2 2 2 2 4 7 8 8 10 15 14 12 10 10 13 10 9 9 8 8 6 8 13 15 18 22 21 19 19 16 17 18 19 19 18 20 19 17 17 17 13 10
5 3 2 3 2 4 1 14 14 5 5 11 11 8 8 4 6 2 6 5 7 7 10 13 16 16 18 18 19 16 15 13 12 15 19 23 23 23 22 20 21 19 17 18
4 3 2 2 1 4 7 19 9 3 1 6 1 5 9 6 2 4 8 11 10 11 15 17 16 12 15 17 16 9 10 10 15 20 22 23 25 24 23 24 24 24 22 18
3 1 2 2 4 5 13 5 5 3 3 3 4 4 5 5 7 8 9 9 10 8 12 15 14 15 20 20 14 11 13 16 16 16 18 23 27 27 27 26 29 27 26 21
3 0 3 2 2 4 5 2 3 2 2 2 1 4 3 5 4 3 3 4 5 8 12 16 16 17 17 19 18 19 20 20 21 20 18 20 22 25 28 28 28 25 24 19
3 1 2 2 2 3 6 5 3 3 2 3 5 5 5 5 6 7 7 8 9 14 16 17 16 15 17 19 18 18 23 25 23 24 25 22 21 22 23 25 26 23 19 16
4 4 1 2 4 4 10 6 3 1 4 5 5 5 6 6 5 5 7 8 9 15 18 19 18 18 20 21 21 20 20 21 22 23 24 26 27 26 25 24 25 24 25 25
1 2 2 4 5 4 5 4 4 3 3 4 3 3 5 5 5 6 6 9 14 15 18 18 19 20 22 22 23 24 24 22 23 25 24 24 25 25 26 27 27 28 33 32
Wind_Direction
290 292 243 256 255 252 250 255 256 249 252 229 250 240 251 244 238 247 254 240 243 246 236 251 251 252 254 247 231 209 200 196 193 191 191 190 191 192 190 196 197 197 198 199
281 251 274 293 271 256 253 254 255 260 261 232 250 251 253 249 241 242 245 253 249 253 249 255 256 251 248 241 229 200 197 192 193 192 194 193 192 193 194 195 200 198 198 198
257 275 277 267 274 283 271 250 260 257 255 253 246 257 255 250 248 246 247 249 251 248 248 253 253 239 235 228 223 194 195 192 191 190 192 192 193 194 192 191 195 198 198 198
274 256 272 266 261 254 261 269 279 261 256 247 227 259 255 256 249 245 248 239 248 247 245 248 252 249 218 231 220 196 192 190 191 188 188 188 184 189 195 189 194 197 197 201
271 295 291 296 267 260 255 250 274 275 272 271 265 247 261 310 241 240 236 238 240 241 240 240 244 232 160 221 208 192 195 190 190 186 188 189 191 196 193 193 196 195 195 201
259 290 276 257 293 260 253 257 253 282 269 266 248 200 284 271 243 248 225 2 357 8 346 245 240 80 53 58 195 189 184 195 192 189 190 190 191 187 187 191 190 190 191 193
312 293 244 272 312 279 233 224 245 249 231 253 211 206 233 37 33 71 81 56 52 37 52 60 60 63 57 49 71 121 166 175 183 189 195 194 196 188 189 188 187 184 189 194
285 311 279 293 265 290 273 209 212 237 226 283 192 203 91 317 90 86 66 68 60 55 48 60 58 59 59 63 68 78 79 86 150 183 195 198 198 189 190 192 204 191 188 199
291 271 285 276 270 263 333 217 222 239 274 279 232 215 71 63 64 72 77 67 60 57 54 53 53 50 48 53 59 66 70 70 75 86 156 188 198 195 190 201 204 193 206 211
270 286 268 287 335 282 250 308 193 185 226 241 262 39 37 61 94 60 76 62 54 49 46 54 50 53 52 50 53 60 63 62 69 72 71 81 102 171 185 178 177 190 203 211
259 245 288 306 2 325 338 7 322 191 127 199 132 37 353 49 39 66 68 71 61 50 35 44 54 52 57 54 53 52 56 56 58 68 74 76 77 84 115 139 155 158 182 198
310 275 275 277 313 293 294 334 311 347 6 85 116 90 345 34 48 71 75 62 57 50 34 15 53 49 51 48 48 50 50 52 57 61 68 72 81 83 85 89 92 98 106 131
343 310 321 351 296 346 336 342 330 303 332 44 105 101 14 5 62 4 77 70 68 61 47 25 40 39 40 41 44 42 48 48 48 52 54 58 67 70 74 75 78 89 93 88
332 297 167 259 277 313 324 333 343 32 15 354 62 134 85 41 62 56 96 86 89 74 66 31 10 39 39 39 38 45 40 37 39 45 44 40 46 60 61 67 71 62 68 79
1 297 316 312 301 326 310 332 344 32 37 40 23 77 107 124 180 178 122 97 90 93 92 78 35 62 121 35 53 35 55 47 35 28 38 33 27 44 55 51 52 42 20 29
341 284 322 299 326 352 18 2 8 33 12 67 37 74 83 131 155 37 19 131 122 123 118 105 86 57 57 19 126 117 76 3 53 59 25 18 8 352 36 42 37 20 1 356
259 296 336 300 334 337 25 14 32 42 25 3 39 54 71 66 69 68 59 54 63 70 61 58 56 356 32 48 21 5 21 74 304 341 344 340 333 338 344 356 23 13 357 344
260 8 347 300 350 30 19 1 24 51 30 47 74 78 76 85 72 61 59 69 63 62 47 36 32 35 35 35 36 33 24 32 32 31 25 6 5 332 323 309 306 317 315 291
209 73 320 69 306 260 5 7 360 6 33 25 46 50 58 75 68 39 19 45 57 60 50 43 44 37 33 28 27 29 32 31 25 7 360 355 357 358 353 350 329 312 296 275
79 32 124 358 61 358 314 327 330 338 42 4 9 10 17 19 66 322 344 40 52 49 40 28 26 33 31 21 14 13 13 11 19 358 338 333 332 329 333 338 338 337 315 290
337 358 90 1 1 309 335 326 314 40 270 322 9 352 37 52 44 334 16 20 21 27 22 23 25 30 15 357 354 353 0 2 335 324 323 324 321 320 321 319 319 319 319 306
310 2 311 -0 26 355 343 354 51 233 287 9 14 25 48 50 34 22 20 17 20 15 7 6 355 348 346 347 350 347 335 329 326 323 319 318 318 318 316 314 310 309 305 303
22 54 355 40 202 262 261 172 270 207 351 318 355 18 64 62 27 350 324 355 0 3 357 354 347 339 344 349 345 336 330 332 330 326 320 312 310 311 309 309 304 300 294 280
313 18 76 132 288 296 316 350 53 99 205 50 55 58 42 25 2 1 4 3 2 2 358 355 354 348 341 341 335 326 325 328 325 320 316 312 305 301 296 292 290 281 274 260
223 346 25 302 276 272 258 244 199 147 75 85 47 32 21 15 7 7 359 356 352 353 352 348 342 338 332 329 323 320 316 313 306 302 304 301 298 296 290 281 277 273 269 260
266 224 159 229 235 200 266 110 117 113 84 77 65 22 15 44 12 1 347 346 341 340 340 337 332 325 322 324 320 315 313 310 307 300 300 293 288 287 285 282 279 264 262 263